Cato Island Observation History
Time Wind Speed Temp Pressure Rel. Hum Rain
05/09:30pm - 20-23 kts 21.9°c 1022.9 hPa n/a n/a
05/09:00pm - 19-23 kts 21.7°c 1022.8 hPa n/a n/a
05/08:30pm - 17-22 kts 21.6°c 1022.9 hPa n/a n/a
05/08:19pm - 16-26 kts 20.4°c 1023.1 hPa n/a n/a
05/08:00pm - 20-25 kts 21.4°c 1023.0 hPa n/a n/a
05/07:30pm - 19-24 kts 22.0°c 1022.8 hPa n/a n/a
05/07:00pm - 20-23 kts 22.0°c 1022.4 hPa n/a n/a
05/06:30pm - 19-23 kts 22.0°c 1022.0 hPa n/a n/a
05/06:00pm - 20-23 kts 21.9°c 1021.7 hPa n/a n/a
05/05:30pm - 21-24 kts 21.8°c 1021.4 hPa n/a n/a
05/05:00pm - 20-23 kts 21.6°c 1021.2 hPa n/a n/a
05/04:30pm - 20-24 kts 21.6°c 1021.0 hPa n/a n/a
05/04:00pm - 17-25 kts 21.2°c 1021.0 hPa n/a n/a
05/03:30pm - 29-34 kts 21.0°c 1020.7 hPa n/a n/a
05/03:20pm - 23-33 kts 21.7°c 1020.6 hPa n/a n/a
05/03:00pm - 19-23 kts 21.8°c 1020.7 hPa n/a n/a
05/02:30pm - 21-25 kts 21.7°c 1020.8 hPa n/a n/a
05/02:00pm - 22-28 kts 21.9°c 1020.9 hPa n/a n/a
05/01:30pm - 20-24 kts 22.3°c 1021.1 hPa n/a n/a
05/01:00pm - 22-26 kts 22.4°c 1021.4 hPa n/a n/a
05/12:30pm - 21-25 kts 22.1°c 1021.9 hPa n/a n/a
05/12:00pm - 22-26 kts 22.2°c 1022.2 hPa n/a n/a
05/11:30am - 22-27 kts 21.9°c 1022.8 hPa n/a n/a
05/11:00am - 22-28 kts 21.8°c 1023.2 hPa n/a n/a
05/10:50am - 22-32 kts 21.4°c 1023.3 hPa n/a n/a
05/10:30am - 21-27 kts 22.1°c 1023.6 hPa n/a n/a
05/10:00am - 21-26 kts 22.0°c 1023.7 hPa n/a n/a
05/09:30am - 21-27 kts 22.3°c 1023.9 hPa n/a n/a
05/09:00am - 17-23 kts 21.7°c 1024.0 hPa n/a n/a
05/08:40am - 20-30 kts 21.7°c 1023.9 hPa n/a n/a
05/08:30am - 18-23 kts 21.8°c 1024.0 hPa n/a n/a
05/08:00am - 24-30 kts 21.7°c 1023.6 hPa n/a n/a
05/07:30am - 25-31 kts 22.1°c 1023.3 hPa n/a n/a
05/07:00am - 23-29 kts 21.5°c 1022.9 hPa n/a n/a
05/06:30am - 23-29 kts 21.8°c 1022.5 hPa n/a n/a
05/06:00am - 22-29 kts 22.0°c 1022.1 hPa n/a n/a
05/05:30am - 23-28 kts 21.8°c 1021.8 hPa n/a n/a
05/05:00am - 23-28 kts 21.5°c 1021.6 hPa n/a n/a
05/04:36am - 23-33 kts 21.4°c 1021.3 hPa n/a n/a
05/04:30am - 24-33 kts 21.0°c 1021.1 hPa n/a n/a
05/04:00am - 24-31 kts 21.6°c 1021.2 hPa n/a n/a
05/03:30am - 25-30 kts 21.5°c 1021.0 hPa n/a n/a
05/03:00am - 26-30 kts 21.3°c 1021.3 hPa n/a n/a
05/02:30am - 23-27 kts 20.6°c 1021.7 hPa n/a n/a
05/02:00am - 26-32 kts 21.2°c 1021.9 hPa n/a n/a
05/01:30am - 26-32 kts 20.0°c 1022.2 hPa n/a n/a
05/01:06am - 17-30 kts 19.6°c 1022.6 hPa n/a n/a
05/01:00am - 18-21 kts 19.5°c 1022.7 hPa n/a n/a
05/12:51am - 23-33 kts 20.1°c 1022.9 hPa n/a n/a
05/12:30am - 23-29 kts 20.6°c 1022.9 hPa n/a n/a
05/12:00am - 26-29 kts 20.9°c 1023.1 hPa n/a n/a
Time Wind Speed Temp Pressure Rel. Hum Rain
04/11:30pm - 25-30 kts 21.4°c 1023.5 hPa n/a n/a
04/11:00pm - 28-33 kts 21.5°c 1023.4 hPa n/a n/a
04/10:30pm - 26-30 kts 21.9°c 1023.3 hPa n/a n/a
04/10:00pm - 20-25 kts 21.6°c 1023.5 hPa n/a n/a
04/09:30pm - 24-35 kts 21.9°c 1023.6 hPa n/a n/a
04/09:29pm - 24-35 kts 21.7°c 1023.5 hPa n/a n/a
04/09:00pm - 23-27 kts 21.9°c 1023.6 hPa n/a n/a
04/08:31pm - 25-35 kts 21.5°c 1023.6 hPa n/a n/a
04/08:30pm - 25-32 kts 21.7°c 1023.6 hPa n/a n/a
04/08:00pm - 27-30 kts 21.9°c 1023.4 hPa n/a n/a
04/07:30pm - 26-32 kts 21.6°c 1023.4 hPa n/a n/a
04/07:00pm - 25-35 kts 20.9°c 1023.3 hPa n/a n/a
04/06:44pm - 24-34 kts 21.8°c 1023.1 hPa n/a n/a
04/06:30pm - 27-33 kts 21.0°c 1023.0 hPa n/a n/a
04/06:00pm - 26-30 kts 20.8°c 1022.6 hPa n/a n/a
04/05:30pm - 27-31 kts 21.5°c 1022.2 hPa n/a n/a
04/05:00pm - 23-26 kts 22.2°c 1021.8 hPa n/a n/a
04/04:30pm - 22-26 kts 22.2°c 1021.5 hPa n/a n/a
04/04:00pm - 23-28 kts 22.3°c 1021.4 hPa n/a n/a
04/03:30pm - 24-28 kts 22.6°c 1021.1 hPa n/a n/a
04/03:00pm - 25-30 kts 22.4°c 1020.9 hPa n/a n/a
04/02:30pm - 24-28 kts 22.4°c 1021.0 hPa n/a n/a
04/02:00pm - 25-30 kts 22.4°c 1021.0 hPa n/a n/a
04/01:30pm - 24-28 kts 22.5°c 1021.2 hPa n/a n/a
04/01:00pm - 21-25 kts 22.6°c 1021.4 hPa n/a n/a
04/12:30pm - 23-27 kts 22.5°c 1021.6 hPa n/a n/a
04/12:00pm - 23-27 kts 22.5°c 1021.8 hPa n/a n/a
04/11:30am - 23-27 kts 22.6°c 1022.1 hPa n/a n/a
04/11:00am - 24-28 kts 22.4°c 1022.2 hPa n/a n/a
04/10:30am - 25-29 kts 22.5°c 1022.4 hPa n/a n/a
04/10:00am - 24-28 kts 22.4°c 1022.6 hPa n/a n/a
04/09:30am - 23-27 kts 22.5°c 1022.7 hPa n/a n/a
04/09:00am - 23-28 kts 22.4°c 1022.5 hPa n/a n/a
04/08:30am - 23-27 kts 22.5°c 1022.3 hPa n/a n/a
04/08:00am - 24-27 kts 22.5°c 1022.0 hPa n/a n/a
04/07:30am - 23-27 kts 22.3°c 1021.6 hPa n/a n/a
04/07:00am - 21-27 kts 22.2°c 1021.4 hPa n/a n/a
04/06:30am - 23-26 kts 22.0°c 1021.2 hPa n/a n/a
04/06:00am - 21-25 kts 21.8°c 1021.0 hPa n/a n/a
04/05:30am - 23-29 kts 22.0°c 1020.7 hPa n/a n/a
04/05:00am - 22-25 kts 21.9°c 1020.4 hPa n/a n/a
04/04:30am - 22-29 kts 21.7°c 1020.0 hPa n/a n/a
04/04:00am - 22-27 kts 21.7°c 1019.8 hPa n/a n/a
04/03:30am - 22-25 kts 21.8°c 1020.0 hPa n/a n/a
04/03:00am - 21-25 kts 21.7°c 1020.1 hPa n/a n/a
04/02:30am - 19-24 kts 21.8°c 1020.3 hPa n/a n/a
04/02:00am - 19-23 kts 21.6°c 1020.3 hPa n/a n/a
04/01:30am - 17-19 kts 21.7°c 1020.6 hPa n/a n/a
04/01:00am - 17-21 kts 21.3°c 1020.9 hPa n/a n/a
04/12:30am - 17-23 kts 21.2°c 1021.1 hPa n/a n/a
04/12:00am - 15-19 kts 21.2°c 1021.1 hPa n/a n/a
Time Wind Speed Temp Pressure Rel. Hum Rain
03/11:30pm - 15-21 kts 21.1°c 1021.3 hPa n/a n/a
03/11:00pm - 15-17 kts 21.5°c 1021.2 hPa n/a n/a
03/10:30pm - 15-22 kts 21.6°c 1021.5 hPa n/a n/a
03/10:00pm - 14-16 kts 21.0°c 1021.3 hPa n/a n/a
03/09:30pm - 13-18 kts 21.2°c 1021.3 hPa n/a n/a
03/09:00pm - 12-17 kts 21.2°c 1021.2 hPa n/a n/a
03/08:30pm - 12-16 kts 21.2°c 1021.0 hPa n/a n/a
03/08:00pm - 12-15 kts 21.1°c 1020.7 hPa n/a n/a
03/07:30pm - 12-16 kts 21.2°c 1020.5 hPa n/a n/a
03/07:00pm - 11-13 kts 21.3°c 1020.1 hPa n/a n/a
03/06:30pm - 10-15 kts 21.2°c 1019.8 hPa n/a n/a
03/06:00pm - 9-11 kts 21.1°c 1019.4 hPa n/a n/a
03/05:30pm - 11-14 kts 21.1°c 1018.9 hPa n/a n/a
03/05:00pm - 10-13 kts 21.2°c 1018.6 hPa n/a n/a
03/04:30pm - 11-13 kts 21.4°c 1018.5 hPa n/a n/a
03/04:00pm - 10-13 kts 21.5°c 1018.1 hPa n/a n/a
03/03:30pm - 10-12 kts 21.4°c 1018.0 hPa n/a n/a
03/03:00pm - 10-14 kts 21.7°c 1018.0 hPa n/a n/a
03/02:30pm - 10-13 kts 21.6°c 1017.8 hPa n/a n/a
03/02:00pm - 10-11 kts 21.7°c 1017.9 hPa n/a n/a
03/01:30pm - 10-12 kts 22.0°c 1018.0 hPa n/a n/a
03/01:00pm - 11-13 kts 22.2°c 1018.3 hPa n/a n/a
03/12:30pm - 10-13 kts 22.2°c 1018.7 hPa n/a n/a
03/12:00pm - 9-11 kts 22.4°c 1019.2 hPa n/a n/a
03/11:30am - 9-12 kts 22.5°c 1019.6 hPa n/a n/a
03/11:00am - 6-8 kts 22.2°c 1020.2 hPa n/a n/a
03/10:30am - 8-11 kts 22.2°c 1020.4 hPa n/a n/a
03/10:00am - 8-11 kts 22.2°c 1020.5 hPa n/a n/a
03/09:30am - 9-11 kts 22.2°c 1020.5 hPa n/a n/a
03/09:00am - 9-12 kts 22.0°c 1020.5 hPa n/a n/a
03/08:30am - 10-13 kts 21.9°c 1020.3 hPa n/a n/a
03/08:00am - 10-13 kts 21.8°c 1020.4 hPa n/a n/a
03/07:30am - 11-13 kts 21.6°c 1020.0 hPa n/a n/a
03/07:00am - 12-15 kts 21.8°c 1019.6 hPa n/a n/a
03/06:30am - 12-14 kts 21.6°c 1019.3 hPa n/a n/a
03/06:00am - 13-16 kts 21.7°c 1019.0 hPa n/a n/a
03/05:30am - 13-15 kts 21.5°c 1018.6 hPa n/a n/a
03/05:00am - 14-18 kts 21.6°c 1018.4 hPa n/a n/a
03/04:30am - 14-17 kts 21.2°c 1018.3 hPa n/a n/a
03/04:00am - 14-17 kts 21.2°c 1018.3 hPa n/a n/a
03/03:30am - 13-17 kts 21.2°c 1018.4 hPa n/a n/a
03/03:00am - 14-16 kts 21.1°c 1018.6 hPa n/a n/a
03/02:30am - 14-19 kts 21.1°c 1018.9 hPa n/a n/a
03/02:00am - 14-18 kts 21.3°c 1019.0 hPa n/a n/a
03/01:30am - 15-18 kts 21.3°c 1019.0 hPa n/a n/a
03/01:00am - 14-16 kts 21.2°c 1019.2 hPa n/a n/a
03/12:30am - 14-17 kts 21.3°c 1019.5 hPa n/a n/a
03/12:00am - 15-18 kts 21.3°c 1019.4 hPa n/a n/a